Terminal Aerodrome Forecast
Issued by NWS

Home | Current Version | Previous Version | Text Only | Print | Product List | Glossary On
Versions: 1 2 3 4 5 6 7 8 9 10 11 12 13 14 15 16 17
000
FTUS45 KFGZ 201700
TAFPRC
TAF
KPRC 201720Z 2018/2118 31010KT P6SM SCT090
      TEMPO 2020/2024 BKN090
     FM210200 19006KT P6SM FEW250=

USA.gov is the U.S. government's official web portal to all federal, state and local government web resources and services.